Find Starlink 34985

NORAD ID: 65379 Int'l Des: 2025-191 Owner: SPXS Country: US Constellation: starlink operational
LEOCIRCULARRETROGRADESSO

当前视图

正在加载3D地球...

About Starlink 34985

Starlink 34985 (NORAD 65379) is a starlink constellation satellite (v2 mini) launched Aug 30, 2025 by SPXS of US. It operates in LEO, CIRCULAR, RETROGRADE, SSO orbit with a mass of 575.00 kg.

即将过境

Passes for default location (London). Set your location on the main map for personalized predictions.

高度历史

Loading altitude history...

两行轨道根数

1 65379U 25191A 26221.85955485 .00014756 00000-0 10240-2 0 9992
2 65379 97.2837 89.3114 0001693 72.7188 287.4225 15.05669008 53318
Epoch: Aug 9, 2026 • Age: 12 hours

当前状态

高度 558.1 km
远地点 / 近地点 N/A
速度 7.59 km/s
星下点 55.95°N, 163.32°W
发射日期 Aug 30, 2025
运行时间 0.9 years
类型 internet

技术详情

分类 Payload
质量 575.00 kg
干质量 530.00 kg
总质量 575.00 kg
长度 0.30 m
直径 4.10 m
跨度 29.00 m
形状 Box + pan
制造商 SPXS
平台类型 Starlink V2MO
阶段状态 In Orbit
所有者/国家 SPXS/US

Most Searched